Location: Gensac
(43.2177°N, 1.1313°E)
Time: 16:56:16
(UTC+00:00)

Cosmos 2098 Rocket - Visible Passes

Search period start: 14 March 2026 00:00
Search period end: 24 March 2026 00:00
Orbit: 348 x 853 km, 82.9° (Epoch: 14 March)

Date Brightness Start Highest point End Pass type
(mag) Time Alt. Az. Time Alt. Az. Time Alt. Az.
14 Mar 2.6 05:12:59 10° S 05:15:59 68° E 05:19:27 10° NNE visible
15 Mar 2.3 05:24:19 10° SSW 05:27:23 61° W 05:30:55 10° N visible
16 Mar 5.8 04:00:51 10° E 04:01:56 11° E 04:03:04 10° ENE visible
16 Mar 3.1 05:35:55 10° SW 05:38:49 33° WNW 05:42:10 10° N visible
17 Mar 5.2 04:10:35 10° SE 04:13:01 20° E 04:15:42 10° NE visible
18 Mar 4.2 04:21:08 10° SSE 04:24:08 34° E 04:27:34 10° NNE visible
19 Mar 2.9 04:32:02 10° S 04:35:17 63° E 04:39:08 10° NNE visible
20 Mar 2.5 04:43:09 10° SSW 04:46:31 71° W 04:50:29 10° N visible
21 Mar 5.8 03:19:30 10° ESE 03:21:00 12° E 03:22:36 10° NE visible
21 Mar 3.1 04:54:37 11° SSW 04:57:48 40° WNW 05:01:40 10° N visible
22 Mar 5.2 03:29:26 11° SE 03:31:55 20° E 03:34:57 10° NE visible
22 Mar 3.8 05:06:12 11° SW 05:09:09 25° WNW 05:12:38 10° NNW visible
23 Mar 4.3 03:40:55 20° SE 03:42:52 34° E 03:46:40 10° NNE visible
23 Mar 4.4 05:18:02 10° WSW 05:20:32 17° WNW 05:23:18 10° NNW visible
